Location: Brompton
(51.4000°N, 0.5333°E)
Time: 11:00:30
(UTC+00:00)

Cosmos 1898 Rocket - Pass Details

Date: 25 September 2021
Orbit: 752 x 784 km, 74.0° (Epoch: 17 October)

Event Time Altitude Azimuth Distance (km) Brightness Sun altitude
Exits shadow 21:27:43 44° 351° (N) 1,058 4.4 -31.7°
Drops below altitude 10° 21:31:33 10° 19° (NNE) 2,322 6.3 -32.1°
Sets 21:34:00 0° 24° (NNE) 3,258 7.1 -32.3°
